Tracking 25711 objects as of 22-May-2022
HD Live streaming from Space Station
objects crossing your sky now

STARLINK-3172

Track STARLINK-3172 now!
10-day predictions
STARLINK-3172 is classified as:


NORAD ID: 51139
Int'l Code: 2022-005AM
Perigee: 545.6 km
Apogee: 548.1 km
Inclination: 53.2 °
Period: 95.4 minutes
Semi major axis: 6917 km
RCS: Unknown
Launch date: January 19, 2022
Source: United States (US)
Launch site: AIR FORCE EASTERN TEST RANGE (AFETR)
aabbcc
Your satellite tracking list
Your tracking list is empty




NASA's NSSDC Master Catalog

Two Line Element Set (TLE):
1 51139U 22005AM  22142.58334491 -.00004117  00000-0 -24069-3 0  9995
2 51139  53.2177  46.0745 0001830  48.7371 352.2684 15.08840318  1306
Source of the keplerian elements: AFSPC